Location: Follega
(52.8850°N, 5.7362°E)
Time: 09:48:11
(UTC+00:00)

Spot 2 Rocket - Pass Details

Date: 01 June 2020
Orbit: 758 x 771 km, 98.6° (Epoch: 11 July)

Event Time Altitude Azimuth Distance (km) Brightness Sun altitude
Exits shadow 20:44:03 - 173° (S) 2,932 6.0 -6.3°
Reaches altitude 10° 20:45:41 10° 175° (S) 2,285 5.5 -6.4°
Maximum altitude 20:50:41 65° 257° (WSW) 840 3.9 -6.9°
Drops below altitude 10° 20:55:43 10° 340° (NNW) 2,305 7.5 -7.3°
Sets 20:58:04 0° 343° (NNW) 3,237 8.3 -7.5°
